Location: Ferchesar
(52.6477°N, 12.4298°E)
Time: 10:15:25
(UTC+01:00)

Tiros 1 despin weight - Pass Details

Date: 07 December 2021
Orbit: 592 x 641 km, 48.2° (Epoch: 19 January)

Event Time Altitude Azimuth Distance (km) Brightness Sun altitude
Rises 15:29:56 0° 267° (W) 2,832 ? 2.2°
Reaches altitude 10° 15:32:18 10° 261° (W) 1,926 ? 1.9°
Maximum altitude 15:36:29 44° 190° (S) 826 ? 1.5°
Drops below altitude 10° 15:40:40 10° 118° (ESE) 1,921 ? 1.0°
Sets 15:43:01 0° 112° (ESE) 2,824 ? 0.7°
